Weather History for KASH - October, 2012

Change the Weather History Date:

Wednesday, October 10, 2012

  Actual Average Record
Temperature  
Mean Temperature 52 °F -  
Max Temperature 57 °F 61 °F 86 °F (1949)
Min Temperature 48 °F 38 °F 22 °F (1993)
Degree Days  
Heating Degree Days 12    
Growing Degree Days 2 (Base 50)    
Moisture  
Dew Point 51 °F    
Average Humidity 92    
Maximum Humidity 100    
Minimum Humidity 74    
Precipitation  
Precipitation 0.27 in - - ()
Sea Level Pressure  
Sea Level Pressure 29.89 in    
Wind  
Wind Speed 3 mph (North)    
Max Wind Speed 8 mph    
Max Gust Speed -    
Visibility 4 miles    
Events Fog , Rain    
Averages and records for this station are not official NWS values.
T = Trace of Precipitation, MM = Missing Value Source: NWS Daily Summary

Daily Weather History Graph

Daily Weather History Graph

Search for Another Location

Airport or City:

Trip Planner

Search our weather history database for the weather conditions in past years. The results will help you decide how hot, cold, wet, or windy it might be!

Date:

Astronomy

Oct. 10, 2012 Rise Set
Actual Time 6:54 AM EDT 6:11 PM EDT
Civil Twilight 6:25 AM EDT 6:39 PM EDT
Nautical Twilight 5:52 AM EDT 7:12 PM EDT
Astronomical Twilight 5:20 AM EDT 7:44 PM EDT
Moon 1:20 AM EDT (10/10) 3:18 PM EDT (10/10)
Length of Visible Light 12h 13m
Length of Day
11h 17m
Waning Crescent, 27% of the Moon is Illuminated
Oct 10
Waning Crescent
Oct 15
New
Oct 21
First Quarter
Oct 29
Full
Nov 6
Last Quarter

Hourly Weather History & Observations

Time (EDT) Temp. Dew Point Humidity Pressure Visibility Wind Dir Wind Speed Gust Speed Precip Events Conditions
12:51 AM 50.0 °F 43.9 °F 79% 30.16 in 10.0 mi NW 4.6 mph - N/A   Overcast
1:43 AM 48.2 °F 44.6 °F 87% 30.15 in 10.0 mi NW 5.8 mph - N/A   Overcast
1:51 AM 48.9 °F 43.9 °F 83% 30.16 in 10.0 mi NW 6.9 mph - N/A   Overcast
2:51 AM 48.9 °F 43.9 °F 83% 30.14 in 10.0 mi NW 3.5 mph - N/A   Overcast
3:06 AM 48.2 °F 44.6 °F 87% 30.12 in 10.0 mi NW 3.5 mph - N/A   Overcast
3:24 AM 48.2 °F 44.6 °F 87% 30.11 in 10.0 mi NNW 3.5 mph - N/A   Overcast
3:51 AM 48.9 °F 43.9 °F 83% 30.11 in 10.0 mi NNW 3.5 mph - N/A   Overcast
4:40 AM 48.2 °F 44.6 °F 87% 30.09 in 10.0 mi NW 4.6 mph - N/A   Overcast
4:51 AM 48.9 °F 43.9 °F 83% 30.10 in 10.0 mi NNW 3.5 mph - N/A   Overcast
5:00 AM 48.2 °F 44.6 °F 87% 30.09 in 10.0 mi North 3.5 mph - N/A   Overcast
5:17 AM 48.2 °F 44.6 °F 87% 30.09 in 10.0 mi NW 4.6 mph - N/A   Overcast
5:51 AM 48.9 °F 45.0 °F 86% 30.10 in 10.0 mi NNW 3.5 mph - N/A   Overcast
6:51 AM 48.9 °F 45.9 °F 89% 30.09 in 8.0 mi Calm Calm - N/A   Overcast
7:07 AM 48.2 °F 46.4 °F 93% 30.06 in 4.0 mi Calm Calm - N/A   Overcast
7:51 AM 48.9 °F 46.9 °F 93% 30.07 in 5.0 mi NNW 3.5 mph - 0.00 in Rain Light Rain
8:51 AM 50.0 °F 47.8 °F 92% 30.06 in 1.8 mi Calm Calm - 0.01 in   Overcast
8:59 AM 50.0 °F 48.2 °F 94% 30.05 in 2.5 mi Calm Calm - N/A   Overcast
9:08 AM 50.0 °F 48.2 °F 94% 30.04 in 4.0 mi North 3.5 mph - N/A   Overcast
9:15 AM 50.0 °F 48.2 °F 94% 30.04 in 1.8 mi Calm Calm - N/A   Overcast
9:39 AM 51.8 °F 48.2 °F 88% 30.03 in 1.2 mi NE 3.5 mph - N/A   Mostly Cloudy
9:51 AM 50.9 °F 48.9 °F 93% 30.04 in 1.2 mi Calm Calm - 0.00 in Rain Light Rain
9:55 AM 51.8 °F 48.2 °F 88% 30.02 in 2.0 mi Variable 3.5 mph - 0.00 in   Mostly Cloudy
10:04 AM 51.8 °F 50.0 °F 94% 30.02 in 4.0 mi NNE 3.5 mph - 0.00 in   Mostly Cloudy
10:51 AM 52.9 °F 50.9 °F 93% 30.00 in 2.0 mi East 3.5 mph - 0.00 in   Mostly Cloudy
12:17 PM 53.6 °F 51.8 °F 94% 29.93 in 1.8 mi East 6.9 mph - 0.03 in Rain Rain
12:51 PM 54.9 °F 52.9 °F 93% 29.92 in 1.8 mi ESE 5.8 mph - 0.05 in Rain Light Rain
1:09 PM 55.4 °F 53.6 °F 94% 29.90 in 1.2 mi East 5.8 mph - 0.01 in Rain Light Rain
1:33 PM 55.4 °F 53.6 °F 94% 29.88 in 1.0 mi East 8.1 mph - 0.03 in Rain Light Rain
1:44 PM 55.4 °F 53.6 °F 94% 29.87 in 1.2 mi East 6.9 mph - 0.03 in Rain Light Rain
1:51 PM 55.9 °F 52.9 °F 89% 29.87 in 1.2 mi East 6.9 mph - 0.04 in Rain Light Rain
2:11 PM 55.4 °F 53.6 °F 94% 29.84 in 2.0 mi East 5.8 mph - 0.01 in Rain Light Rain
2:17 PM 55.4 °F 53.6 °F 94% 29.84 in 1.2 mi East 5.8 mph - 0.01 in Rain Light Rain
2:21 PM 55.4 °F 53.6 °F 94% 29.84 in 0.8 mi East 6.9 mph - 0.02 in Rain Light Rain
2:41 PM 55.4 °F 53.6 °F 94% 29.83 in 1.2 mi ESE 3.5 mph - 0.04 in Rain Light Rain
2:51 PM 55.9 °F 54.0 °F 93% 29.84 in 1.0 mi Calm Calm - 0.05 in Rain Light Rain
3:00 PM 55.4 °F 53.6 °F 94% 29.82 in 0.8 mi Calm Calm - 0.01 in Rain Light Rain
3:15 PM 57.2 °F 55.4 °F 94% 29.80 in 1.0 mi East 4.6 mph - 0.02 in Rain Light Rain
3:31 PM 57.2 °F 55.4 °F 94% 29.79 in 1.2 mi East 4.6 mph - 0.03 in Rain Light Rain
3:33 PM 57.2 °F 55.4 °F 94% 29.79 in 1.0 mi East 3.5 mph - 0.03 in Rain Light Rain
3:51 PM 56.8 °F 55.9 °F 97% 29.78 in 1.0 mi East 3.5 mph - 0.04 in Rain Light Rain
4:08 PM 57.2 °F 55.4 °F 94% 29.77 in 1.0 mi Calm Calm - 0.01 in Rain Light Rain
4:21 PM 57.2 °F 55.4 °F 94% 29.77 in 0.8 mi Calm Calm - 0.02 in Rain Light Rain
4:36 PM 57.2 °F 55.4 °F 94% 29.75 in 1.0 mi Calm Calm - 0.03 in Rain Light Rain
4:39 PM 57.2 °F 55.4 °F 94% 29.76 in 1.2 mi Calm Calm - 0.03 in Rain Light Rain
4:43 PM 57.2 °F 55.4 °F 94% 29.75 in 1.5 mi Calm Calm - 0.03 in Rain Light Rain
4:51 PM 57.9 °F 55.9 °F 93% 29.76 in 1.5 mi Calm Calm - 0.04 in Rain Light Rain
5:03 PM 57.2 °F 57.2 °F 100% 29.76 in 2.0 mi West 5.8 mph - 0.00 in   Overcast
5:06 PM 57.2 °F 55.4 °F 94% 29.76 in 1.2 mi West 8.1 mph - 0.01 in Rain Light Rain
5:08 PM 57.2 °F 55.4 °F 94% 29.76 in 0.8 mi WNW 5.8 mph - 0.01 in Rain Rain
5:26 PM 57.2 °F 55.4 °F 94% 29.74 in 1.0 mi North 3.5 mph - 0.04 in Rain Light Rain
5:28 PM 57.2 °F 55.4 °F 94% 29.74 in 1.5 mi Calm Calm - 0.04 in Rain Light Rain
5:32 PM 57.2 °F 55.4 °F 94% 29.74 in 3.0 mi NW 4.6 mph - 0.04 in   Mostly Cloudy
5:39 PM 57.2 °F 55.4 °F 94% 29.74 in 10.0 mi NW 3.5 mph - 0.04 in   Overcast
5:51 PM 56.8 °F 55.9 °F 97% 29.75 in 10.0 mi Calm Calm - 0.04 in   Overcast
6:06 PM 57.2 °F 55.4 °F 94% 29.73 in 10.0 mi Calm Calm - N/A   Mostly Cloudy
6:51 PM 55.9 °F 54.9 °F 96% 29.74 in 1.5 mi Calm Calm - N/A   Mostly Cloudy
6:53 PM 55.4 °F 55.4 °F 100% 29.73 in 1.0 mi Calm Calm - N/A   Mist
6:56 PM 55.4 °F 55.4 °F 100% 29.73 in 0.5 mi Calm Calm - N/A Fog Fog
7:05 PM 55.4 °F 55.4 °F 100% 29.73 in 0.2 mi Calm Calm - N/A Fog Fog
7:51 PM 54.9 °F 54.0 °F 97% 29.73 in 0.5 mi Calm Calm - N/A Fog Fog
7:54 PM 55.4 °F 53.6 °F 94% 29.72 in 0.8 mi Calm Calm - N/A   Mostly Cloudy
7:56 PM 55.4 °F 53.6 °F 94% 29.72 in 1.2 mi Calm Calm - N/A   Mostly Cloudy
7:58 PM 55.4 °F 53.6 °F 94% 29.72 in 2.5 mi Calm Calm - N/A   Scattered Clouds
8:05 PM 55.4 °F 53.6 °F 94% 29.72 in 10.0 mi Variable 4.6 mph - N/A   Scattered Clouds
8:51 PM 55.9 °F 54.0 °F 93% 29.75 in 10.0 mi West 6.9 mph - N/A   Partly Cloudy
9:51 PM 52.9 °F 50.9 °F 93% 29.76 in 10.0 mi WNW 4.6 mph - N/A   Partly Cloudy
10:51 PM 54.0 °F 50.0 °F 86% 29.78 in 10.0 mi WSW 3.5 mph - N/A   Mostly Cloudy
11:51 PM 52.9 °F 45.0 °F 74% 29.80 in 10.0 mi Variable 3.5 mph - N/A   Overcast